STARLINK-34684, 64862

Orbit data source: Space-Track

STARLINK-34684, 64862 is a payload satellite owned by SpaceX/Seattle (US) in SSO that was launched on Sat, 19 Jul 2025 UTC via an FALCON 9 launch vehicle from the Air Force Western Test Range (AFWTR). Payload-class satellites include a variety of spacecraft equipped with specific instruments for various scientific and technological missions. These include communications satellites like Starlink; space stations such as the ISS; scientific satellites like the Hubble; Earth observation satellites from companies like Planet Labs, Umbra, and HawkEye 360; GPS; miniature CubeSats for education and research; and military/defense satellites.

Loading next visibility...
Identifier
64862, 2025-152W
Orbit
SSO
Country
Flag of USUS
Related business
Manufacturer
SpaceX/Seattle
Mission
Operational Commercial Communications
Bus & Motor
STARLINK V2MO, Unknown motor
Mass
575 kg wet, ~530 kg dry
Launch date (UTC)
2025-07-19 (9 months ago)
Launch vehicle
FALCON 9
Launch site
Air Force Western Test Range (AFWTR)
Object type
Payload
Rocket body
Debris
Shape & HBR
Box + 2 Pan, 17.7 m
Radar Cross Section
36.964 m², Large (>1 m²)

Expand to show TLE details & history
Last TLE update: 10 hours ago

TLE from 10 hours ago
0 STARLINK-34684
1 64862U 25152W   26095.16517540  .00004197  00000-0  29493-3 0  9993
2 64862  97.6014 311.6463 0001452  92.8268 267.3125 15.05650828 39408
Epoch: 2026-04-05T03:57Z
TLE epoch observation values (Epoch: 2026-04-05T03:57:51.154Z)
Latitude
-0.00003°
Longitude
58.70865°
Altitude
552.621 km
Speed
7.585 km/s
True Right ascension
20h 46m 35s
True Declination
0° 00' 00"
Sunlit
Object was in daylight at epoch
Visualization orbit readout
Latitude
Unknown
Longitude
Unknown
Altitude
Unknown
Speed
Unknown
Apparent Right ascension
Unknown
Apparent Declination
Unknown
Sunlit
N/A
Visualization observer readout
Local Sidereal Time
20:10:59
Azimuth
Unknown
Elevation
Unknown
Doppler factor
Unknown
Orbital elements
Apogee altitude
547.507 km
Perigee altitude
545.497 km
Semi-major axis
6,924.639 km
Eccentricity
0.00015
Inclination
97.6014°
RAAN
311.6463°
Arg. of periapsis
92.8268°
True anomaly
267.29588°
Mean anomaly
267.3125°
Eccentric anomaly
267.30419°
Mean motion
3.76658 °/min
Orbital period
95.58 mins
BSTAR
0.00029493
Loading maneuver chart data...
Computing Atmospheric mass density...
Loading historical data...
Loading historical data...
Loading historical data...
Loading historical data...
Loading historical data...
Loading historical data...
Loading historical data...

Documentation

Showing up to 5 results
|